Regional Weather Roundup
Issued by NWS Sterling, VA

Home | Current Version | Previous Version | Text Only | Print | Product List | Glossary On
Versions: 1 2 3 4 5 6 7 8 9 10 11 12 13 14 15 16 17 18 19 20 21 22 23 24 25 26 27 28 29 30 31 32 33 34 35 36 37 38 39 40 41 42 43 44 45 46 47 48 49 50
000
ASUS41 KLWX 302210
RWRLWX

REGIONAL WEATHER ROUNDUP
NATIONAL WEATHER SERVICE BALTIMORE MD/WASHINGTON DC
600 PM EDT WED JUL 30 2014

Note: "FAIR" indicates few or no clouds below 12,000 feet
with no significant weather and/or obstructions to visibility.
 TC=TEMPERATURE CELSIUS

 * =Non NWS site. Station does not report precipitation (e.g. rain,
    snow, etc.), thunder, or fog.

DCZ001-MDZ009-015-VAZ040>042-051-053>054-302300-
WASHINGTON METRO
  /KDAA//-FT BELVOIR

CITY           SKY/WX    TMP DP  RH WIND       PRES   REMARKS
WASHINGTON NAT MOSUNNY   79  55  43 S12       30.03F
DULLES         MOSUNNY   75  51  43 S8        30.03S
ANDREWS AFB    SUNNY     77  54  44 SW7       30.03F
QUANTICO       MOSUNNY   78  55  44 S7        30.04F
COLLEGE PARK*  MOSUNNY   81  50  34 S5        30.02F
LEESBURG*      SUNNY     79  57  47 SW7       30.03F
GAITHERSBURG*  MOSUNNY   77  52  41 SW3       30.06F

$$

MDZ006>007-011-014-302300-
BALTIMORE METRO

CITY           SKY/WX    TMP DP  RH WIND       PRES   REMARKS
BWI AIRPORT    MOSUNNY   79  48  33 W5        30.02S
MD SCIENCE CTR   N/A     79  52  38 MISG      30.02F
MARTIN STATE   SUNNY     77  59  53 SE10      30.04S
ANNAPOLIS      SUNNY     76  55  48 S8        30.03S
FORT MEADE*    SUNNY     73  52  46 W3        30.05S

$$

MDZ012-015-019>023-302300-
MARYLAND EASTERN SHORE

CITY           SKY/WX    TMP DP  RH WIND       PRES   REMARKS
OCEAN CITY     SUNNY     74  59  59 SE8       30.04F
SALISBURY      SUNNY     80  50  34 W6        30.04S
BAY BRIDGE AP*   N/A     77  50  38 S7        30.03F
CAMBRIDGE*     SUNNY     79  52  38 CALM      30.04S
EASTON*        SUNNY     79  54  41 SW5       30.08S

$$

MDZ017>025-302300-
SOUTHERN MARYLAND

CITY           SKY/WX    TMP DP  RH WIND       PRES   REMARKS
PATUXENT RIVER MOSUNNY   78  50  37 W9        30.04S
ST INIGOES     SUNNY     78  53  41 NW5       30.03F
LEONARDTOWN*   SUNNY     77  50  38 W3        30.06S

$$

MDZ003>005-302300-
NORTH CENTRAL MARYLAND

CITY           SKY/WX    TMP DP  RH WIND       PRES   REMARKS
FREDERICK*     SUNNY     79  55  44 VRB3      30.05F
HAGERSTOWN APT PTSUNNY   76  53  44 S7        30.02S
WESTMINSTER*   SUNNY     75  54  46 SW6       30.04S

$$

MDZ501>502-302300-
WESTERN MARYLAND

CITY           SKY/WX    TMP DP  RH WIND       PRES   REMARKS
OAKLAND*       MOSUNNY   63  52  67 SW6       30.09S
CUMBERLAND*    SUNNY     79  54  41 SW8       30.06R

$$

VAZ025>031-302300-
SHENANDOAH VALLEY

CITY           SKY/WX    TMP DP  RH WIND       PRES   REMARKS
WINCHESTER*    MOSUNNY   77  54  44 SW5       30.03S
STAUNTON*      MOSUNNY   76  52  42 S7        30.07F

$$

WVZ021-048>050-054>055-302300-
EASTERN WEST VIRGINIA PANHANDLE

CITY           SKY/WX    TMP DP  RH WIND       PRES   REMARKS
MARTINSBURG    PTSUNNY   76  51  41 SW7       30.03S
PETERSBURG*    MOSUNNY   75  48  38 CALM      30.04F

$$

VAZ036>039-050-302300-
CENTRAL FOOTHILLS

CITY           SKY/WX    TMP DP  RH WIND       PRES   REMARKS
CHARLOTTESVILL MOSUNNY   77  54  44 VRB3      30.03F
ORANGE*        SUNNY     79  54  41 S3        30.05S

$$

VAZ055>057-302300-
NORTH AND CENTRAL PIEDMONT

CITY           SKY/WX    TMP DP  RH WIND       PRES   REMARKS
FREDERICKSBRG* SUNNY     80  54  40 S6        30.03S
STAFFORD*      SUNNY     78  53  41 CALM      30.07F

$$

NCZ024-NYZ072-PAZ021-071-VAZ022-071-302300-
OTHER REGIONAL OBSERVATIONS

CITY           SKY/WX    TMP DP  RH WIND       PRES   REMARKS
NEW YORK CITY  PTSUNNY   78  51  38 W5        30.02F
PHILADELPHIA   MOSUNNY   79  52  38 SW10G24   30.02F
PITTSBURGH     CLOUDY    71  57  61 SW8       30.02S
ROANOKE        MOSUNNY   75  54  47 SE5       30.08F
RICHMOND       MOSUNNY   82  51  34 W8        30.04F
RALEIGH        MOSUNNY   78  63  59 E8        30.04F

$$

ANZ530>537-302300-
MARINE OBSERVATIONS

STATION/POSITION TIME  TEMP    WIND        PRES
                       AIR SEA DIR/SP/G
                 (UTC) (F)     (DEG/KT/KT) (MB)
THOMAS PT LIGHT  2200   75 78  170/ 12/ 14 1017.3F
BALT KEY BRIDGE  2200   75     110/ 12/ 14 1016.2F
COVE POINT       2200   76     290/  4/  6 1017.1S
LEWISETTA        2200   76 77   80/  1/  4 1017.1S
SOLOMONS ISLAND  2200      80                N/A
PINEY POINT      2200          330/  8/  9   N/A

$$




USA.gov is the U.S. government's official web portal to all federal, state and local government web resources and services.